Find Kosmos-1711

NORAD ID: 16397 Int'l Des: 1985-118 Owner: GUKOS Country: SU Constellation: GLONASS operational
MEOCIRCULAR

現在のビュー

3D地球を読み込み中...

About Kosmos-1711

Kosmos-1711 (NORAD 16397) is a GLONASS constellation satellite launched Dec 24, 1985 by GUKOS of SU. It operates in MEO, CIRCULAR orbit with a mass of 1300.00 kg.

Kosmos-1711について

説明を読み込み中...

次回通過

Passes for default location (London). Set your location on the main map for personalized predictions.

高度履歴

Loading altitude history...

軌道要素

1 16397U 85118B 26193.73224904 -.00000070 00000-0 00000+0 0 9998
2 16397 66.0499 323.6090 0009559 182.4890 176.2040 2.13101050315298
Epoch: Jul 12, 2026 • Age: 37 hours

現在のステータス

高度 19128.3 km
遠地点 / 近地点 N/A
速度 3.96 km/s
衛星直下点 55.07°N, 66.35°E
打ち上げ日 Dec 24, 1985
運用期間 40.5 years
タイプ other

技術仕様

分類 Payload
質量 1300.00 kg
乾燥質量 1200.00 kg
総質量 1300.00 kg
長さ 4.00 m
直径 1.50 m
スパン 7.80 m
形状 Cyl + Ant + 2 Pan
製造者 OAZ
バスタイプ Uragan
フェーズステータス In Orbit
所有者/国 GUKOS/SU

Most Searched